Location: Munkebjergskolens Observatorium
(55.3864°N, 10.3987°E)
Time: 02:58:58
(UTC+02:00)

Oscar 19 - Pass Details

Date: 07 April 2023
Orbit: 773 x 789 km, 98.8° (Epoch: 07 June)

Event Time Altitude Azimuth Distance (km) Brightness Sun altitude
Rises 04:56:03 0° 20° (NNE) 3,279 14.8 -13.7°
Reaches altitude 10° 04:58:33 10° 29° (NNE) 2,348 14.2 -13.4°
Maximum altitude 05:03:20 37° 97° (E) 1,204 12.1 -12.8°
Drops below altitude 10° 05:08:07 10° 164° (SSE) 2,342 13.0 -12.3°
Sets 05:10:36 0° 173° (S) 3,268 13.6 -12.0°
